Le nostre stazioni meteo in Italia

Pubblicità
Il mio iltempo24.it
Kinlochewe, Gran Bretagna (99092): Temperatura & dewpoint: 10.01.2017 14:00:00 - 16.01.2017 14:00:00 (GMT)Kinlochewe, Gran Bretagna (99092): Temperatura -20cm: 10.01.2017 14:00:00 - 16.01.2017 14:00:00 (GMT)Kinlochewe, Gran Bretagna (99092): precipitazioni: 10.01.2017 14:00:00 - 16.01.2017 14:00:00 (GMT)
Data & Tempo tt [°C] td [°C] tt -20cm [°C] rr [mm]
16.01.2017 14:00:00 10,2 9,0 - 0,0
16.01.2017 13:00:00 9,6 8,7 - 0,0
16.01.2017 12:00:00 10,0 8,7 - 0,0
16.01.2017 11:00:00 9,3 8,8 - 0,0
16.01.2017 10:00:00 8,5 8,3 - 0,0
16.01.2017 09:00:00 8,6 8,5 4,7 0,0
16.01.2017 08:00:00 7,5 7,3 - 0,0
16.01.2017 07:00:00 7,7 7,5 - 0,0
16.01.2017 06:00:00 8,0 7,8 - 0,0
16.01.2017 05:00:00 8,4 8,2 - 0,0
16.01.2017 04:00:00 8,0 8,0 - 0,0
16.01.2017 03:00:00 7,0 7,0 - 0,2
16.01.2017 02:00:00 6,7 6,7 - 0,0
16.01.2017 01:00:00 6,6 6,6 - 0,0
16.01.2017 00:00:00 6,5 6,5 - 0,0
15.01.2017 23:00:00 6,6 6,6 - 0,2
15.01.2017 22:00:00 6,5 6,5 - 0,0
15.01.2017 21:00:00 6,3 6,3 - 0,2
15.01.2017 20:00:00 6,1 6,1 - 1,0
15.01.2017 19:00:00 6,3 6,2 - 0,8
15.01.2017 18:00:00 6,3 6,2 - 0,4
15.01.2017 17:00:00 7,1 6,9 - 0,4
15.01.2017 16:00:00 7,7 7,6 - 0,6
15.01.2017 15:00:00 8,8 8,8 - 1,0
15.01.2017 14:00:00 8,8 8,8 - 1,6
15.01.2017 13:00:00 9,0 9,0 - 1,4
15.01.2017 12:00:00 8,9 8,9 - 1,4
15.01.2017 11:00:00 8,4 8,4 - 3,2
15.01.2017 10:00:00 8,2 8,1 - 2,2
15.01.2017 09:00:00 8,3 8,2 4,0 1,6
15.01.2017 08:00:00 8,0 7,9 - 0,4
15.01.2017 07:00:00 8,2 8,0 - 1,4
15.01.2017 06:00:00 8,0 7,8 - 1,6
15.01.2017 05:00:00 8,0 7,8 - 1,4
15.01.2017 04:00:00 8,0 7,6 - 0,6
15.01.2017 03:00:00 9,1 7,7 - 0,2
15.01.2017 02:00:00 4,5 4,2 - 1,6
15.01.2017 01:00:00 5,0 4,5 - 2,4
15.01.2017 00:00:00 4,4 3,8 - 2,2
14.01.2017 23:00:00 3,4 3,0 - 1,0
14.01.2017 22:00:00 2,4 2,3 - 1,0
14.01.2017 21:00:00 2,1 1,9 - 0,4
14.01.2017 20:00:00 2,4 2,2 - 0,6
14.01.2017 19:00:00 2,2 1,9 - 0,4
14.01.2017 18:00:00 1,8 1,3 - 0,0
14.01.2017 17:00:00 1,9 1,4 - 0,0
14.01.2017 16:00:00 2,5 1,7 - 0,0
14.01.2017 15:00:00 2,9 1,8 - 0,2
14.01.2017 14:00:00 3,4 1,6 - 0,0
14.01.2017 13:00:00 4,2 1,6 - 0,0
14.01.2017 12:00:00 3,1 1,9 - 0,0
14.01.2017 11:00:00 2,5 2,2 - 0,0
14.01.2017 10:00:00 1,5 1,0 - 0,0
14.01.2017 09:00:00 1,5 0,8 4,5 0,0
14.01.2017 08:00:00 1,8 1,0 - 0,8
14.01.2017 07:00:00 0,7 0,3 - 0,0
14.01.2017 06:00:00 0,9 0,2 - 0,0
14.01.2017 05:00:00 1,9 0,4 - 0,6
14.01.2017 04:00:00 1,0 0,2 - 0,0
14.01.2017 03:00:00 1,4 0,0 - 0,0
14.01.2017 02:00:00 2,7 -0,2 - 0,0
14.01.2017 01:00:00 3,0 -1,0 - 0,0
14.01.2017 00:00:00 3,1 0,6 - 0,8
13.01.2017 23:00:00 2,2 1,1 - 0,8
13.01.2017 22:00:00 2,2 0,5 - 2,6
13.01.2017 21:00:00 3,2 0,4 - 0,0
13.01.2017 20:00:00 2,4 0,5 - 0,0
13.01.2017 19:00:00 1,1 0,3 - 0,0
13.01.2017 18:00:00 1,1 -0,1 - 0,0
13.01.2017 17:00:00 -0,5 -1,7 - 0,0
13.01.2017 16:00:00 1,1 -1,3 - 0,2
13.01.2017 15:00:00 1,6 -0,9 - 0,0
13.01.2017 14:00:00 2,4 -1,5 - 0,4
13.01.2017 13:00:00 1,9 -1,0 - 0,6
13.01.2017 12:00:00 1,4 0,0 - 0,4
13.01.2017 11:00:00 0,8 -0,2 - 0,6
13.01.2017 10:00:00 3,1 -2,2 - 0,0
13.01.2017 09:00:00 2,3 -0,9 4,9 -
13.01.2017 08:00:00 2,6 0,1 - 1,2
13.01.2017 07:00:00 2,3 -0,5 - 1,8
13.01.2017 06:00:00 2,9 -0,6 - 3,0
13.01.2017 05:00:00 2,4 0,6 - 5,0
13.01.2017 04:00:00 2,5 0,4 - 5,0
13.01.2017 03:00:00 2,4 0,7 - 5,8
13.01.2017 02:00:00 1,9 0,9 - 5,2
13.01.2017 01:00:00 1,3 0,6 - 0,0
13.01.2017 00:00:00 0,8 -0,4 - 0,0
12.01.2017 23:00:00 1,7 -3,1 - 0,0
12.01.2017 22:00:00 1,4 -3,1 - 0,0
12.01.2017 21:00:00 1,4 -1,7 - 0,0
12.01.2017 20:00:00 1,4 -1,6 - 0,0
12.01.2017 19:00:00 1,3 -1,2 - 0,0
12.01.2017 18:00:00 0,3 -0,2 - 0,0
12.01.2017 17:00:00 0,3 0,0 - 0,2
12.01.2017 16:00:00 0,5 0,1 - 0,0
12.01.2017 15:00:00 0,5 0,1 - 0,0
12.01.2017 14:00:00 0,5 -0,1 - 0,4
12.01.2017 13:00:00 3,1 -2,3 - 1,4
12.01.2017 12:00:00 1,7 -1,7 - 0,2
12.01.2017 11:00:00 2,0 -2,2 - 0,0
12.01.2017 10:00:00 2,9 -2,9 - 0,4
12.01.2017 09:00:00 1,9 -3,5 5,5 0,2
12.01.2017 08:00:00 1,6 -2,1 - 0,2
12.01.2017 07:00:00 2,6 -2,4 - 0,2
12.01.2017 06:00:00 3,5 -3,3 - 0,2
12.01.2017 05:00:00 3,7 -4,5 - 0,4
12.01.2017 04:00:00 3,5 -3,3 - 0,8
12.01.2017 03:00:00 2,5 -1,9 - 0,6
12.01.2017 02:00:00 3,8 -3,2 - 0,2
12.01.2017 01:00:00 2,8 -2,4 - 0,6
12.01.2017 00:00:00 3,6 -1,1 - 0,4
11.01.2017 23:00:00 3,3 -1,7 - 0,8
11.01.2017 22:00:00 1,8 -1,2 - 0,4
11.01.2017 21:00:00 4,3 -2,1 - 0,6
11.01.2017 20:00:00 3,4 -0,9 - 1,0
11.01.2017 19:00:00 3,7 -0,5 - 0,6
11.01.2017 18:00:00 2,7 -0,7 - 1,0
11.01.2017 17:00:00 2,8 -0,3 - 0,4
11.01.2017 16:00:00 3,2 -2,2 - 0,0
11.01.2017 15:00:00 5,2 -2,9 - 0,0
11.01.2017 14:00:00 5,4 -2,1 - 0,0
11.01.2017 13:00:00 5,1 -0,7 - 0,6
11.01.2017 12:00:00 4,5 0,3 - 1,4
11.01.2017 11:00:00 5,0 -0,6 - 0,0
11.01.2017 10:00:00 6,1 0,2 - 0,4
11.01.2017 09:00:00 5,3 0,5 6,4 0,2
11.01.2017 08:00:00 5,8 1,2 - 0,6
11.01.2017 07:00:00 5,7 1,3 - 0,6
11.01.2017 06:00:00 6,8 -0,3 - 0,0
11.01.2017 05:00:00 7,1 0,0 - 0,0
11.01.2017 04:00:00 6,8 1,5 - 0,2
11.01.2017 03:00:00 6,8 2,4 - 1,6
11.01.2017 02:00:00 7,3 3,0 - 0,6
11.01.2017 01:00:00 7,5 4,8 - 3,0
11.01.2017 00:00:00 9,4 7,0 - 2,2
10.01.2017 23:00:00 10,7 8,9 - 2,6
10.01.2017 22:00:00 7,6 6,2 - 3,2
10.01.2017 21:00:00 7,3 5,8 - 2,2
10.01.2017 20:00:00 7,0 4,9 - 0,8
10.01.2017 19:00:00 7,9 4,2 - 0,0
10.01.2017 18:00:00 7,3 3,9 - 0,0
10.01.2017 17:00:00 7,6 4,1 - 0,2
10.01.2017 16:00:00 7,2 4,9 - 0,4
10.01.2017 15:00:00 8,1 3,5 - 0,0
10.01.2017 14:00:00 7,9 5,2 - 1,4

tt = Temperatura
td = dewpoint
tt -20cm = Temperatura -20cm
rr = precipitazioni

Stazioni seguenti

WeatherPro
AMSI
MeteoEarth